Location: Sternwarte Stuttgart
(48.7670°N, 9.1830°E)
Time: 16:22:09
(UTC+02:00)

SKYMED 2 - Pass Details

Date: 24 January 2019
Orbit: 621 x 623 km, 97.9° (Epoch: 20 April)

Event Time Altitude Azimuth Distance (km) Brightness Sun altitude
Rises 05:52:00 0° 179° (S) 2,887 7.1 -21.4°
Reaches altitude 10° 05:54:14 10° 184° (S) 1,986 6.2 -21.0°
Enters shadow 05:58:20 50° 255° (WSW) 798 3.7 -20.4°
